Weather Service Report


055 
ASUS44 KBMX 261510
RWRAL 
             
ALABAMA REGIONAL WEATHER ROUNDUP
NATIONAL WEATHER SERVICE BIRMINGHAM AL
1000 AM CDT TUE JUL 26 2016

NOTE: "FAIR" INDICATES FEW OR NO CLOUDS BELOW 12,000 FEET
WITH NO SIGNIFICANT WEATHER AND/OR OBSTRUCTIONS TO VISIBILITY.

THE REMARK "TC" DENOTES TEMPERATURE IN DEGREES CELSIUS.

ALZ001>011-014-016>018-020-261600-
NORTH ALABAMA
  
CITY           SKY/WX    TMP DP  RH WIND       PRES   REMARKS
MUSCLE SHOALS  SUNNY     86  73  65 CALM      30.05F HX  93           
HUNTSVILLE     MOSUNNY   88  69  53 VRB3      30.06F HX  92           
DECATUR        SUNNY     86  72  62 W3        30.06F HX  92           
HALEYVILLE     FAIR      85  72  65 W5        30.09F HX  91           
GADSDEN        SUNNY     85  75  72 CALM        N/A  HX  93           
$$
 
ALZ012-013-022-023-030>036-040>044-261600-
WEST CENTRAL ALABAMA
  
CITY           SKY/WX    TMP DP  RH WIND       PRES   REMARKS
TUSCALOOSA     SUNNY     84  73  69 SE7       30.04F HX  90           
$$
 
ALZ015-024>027-033>036-040>044-261600-
CENTRAL ALABAMA
  
CITY           SKY/WX    TMP DP  RH WIND       PRES   REMARKS
BIRMINGHAM     MOSUNNY   86  72  62 CALM      30.08F HX  92           
MONTGOMERY     MOSUNNY   86  74  67 E6        30.04F HX  94           
SHELBY CO ARPT SUNNY     85  74  69 VRB5      30.06F HX  92           
MAXWELL AFB    NOT AVBL                                               
GREENVILLE     FAIR      88  72  58 E13       30.03  HX  94           
$$
 
ALZ019-021-028-029-037-038-045>048-261600-
EAST CENTRAL ALABAMA
  
CITY           SKY/WX    TMP DP  RH WIND       PRES   REMARKS
ANNISTON       SUNNY     86  70  58 CALM      30.06F HX  90           
ALEXANDER CITY SUNNY     82  77  84 SE3       30.08S                  
AUBURN         MOSUNNY   83  73  72 SE6       30.10S                  
$$
 
ALZ051>064-261600-
SOUTHWEST ALABAMA
  
CITY           SKY/WX    TMP DP  RH WIND       PRES   REMARKS
MOBILE         CLOUDY    83  76  79 E7        29.98S HX  91           
BROOKLEY FIELD CLOUDY    84  79  85 E14       29.98S HX  96           
EVERGREEN      PTSUNNY   85  74  69 SE12      30.02F HX  92           
$$

ALZ049-050-065>069-261600-
SOUTHEAST ALABAMA
  
CITY           SKY/WX    TMP DP  RH WIND       PRES   REMARKS
DOTHAN         PTSUNNY   85  75  72 SE9       30.08F HX  93           
OZARK          MOSUNNY   86  77  74 SE12      30.04  HX  97           
TROY           MOSUNNY   85  74  69 SE10      30.06R HX  92           
EUFAULA        FAIR      89  74  60 S7        30.05S HX  98           
$$
  

Return to Home page


Western Regional Climate Center, wrcc@dri.edu